APJ132 RJSS-RJBB

Flight info

Callsign APJ132
Flight time 1h 27m
Altitude 34000
Route RIKYU Y882 GYODA Y88 NAKTU Y12 KEC Y43 KISEI Y46 CANDY
Aircraft A320/M-SDE3FGHIRWY/LB1

Departure

Time 2026-05-08 04:12
Airport Sendai Airport (RJSS)

Arrival

Time 2026-05-08 05:40
Airport Kansai International Airport (RJBB)
Time Latitude Longitude Altitude Speed Heading
2026-05-08 03:50 38.13878 140.92636 12 ft 0 kts 173°
2026-05-08 04:02 38.13897 140.92633 15 ft 3 kts 173°
2026-05-08 04:03 38.13935 140.92628 14 ft 6 kts 173°
2026-05-08 04:03 38.13992 140.92626 15 ft 2 kts 259°
2026-05-08 04:03 38.13994 140.92648 16 ft 0 kts 262°
2026-05-08 04:06 38.13994 140.92647 15 ft 1 kts 262°
2026-05-08 04:06 38.13990 140.92610 14 ft 7 kts 263°
2026-05-08 04:06 38.13982 140.92528 14 ft 11 kts 263°
2026-05-08 04:06 38.13971 140.92417 14 ft 13 kts 262°
2026-05-08 04:07 38.13960 140.92310 13 ft 13 kts 262°
2026-05-08 04:07 38.13947 140.92178 13 ft 16 kts 263°
2026-05-08 04:07 38.13933 140.92048 13 ft 14 kts 262°
2026-05-08 04:07 38.13921 140.91932 13 ft 13 kts 262°
2026-05-08 04:08 38.13908 140.91804 13 ft 16 kts 262°
2026-05-08 04:08 38.13891 140.91655 14 ft 18 kts 261°
2026-05-08 04:08 38.13874 140.91479 13 ft 21 kts 263°
2026-05-08 04:08 38.13854 140.91287 13 ft 23 kts 262°
2026-05-08 04:09 38.13833 140.91082 13 ft 24 kts 263°
2026-05-08 04:09 38.13811 140.90869 13 ft 23 kts 262°
2026-05-08 04:09 38.13790 140.90663 2 ft 24 kts 263°
2026-05-08 04:09 38.13768 140.90445 14 ft 25 kts 263°
2026-05-08 04:10 38.13747 140.90235 12 ft 20 kts 263°
2026-05-08 04:10 38.13731 140.90069 13 ft 8 kts 262°
2026-05-08 04:10 38.13724 140.90002 14 ft 7 kts 263°
2026-05-08 04:10 38.13736 140.89928 13 ft 12 kts 309°
2026-05-08 04:11 38.13810 140.89897 16 ft 9 kts 351°
2026-05-08 04:11 38.13877 140.89917 16 ft 12 kts 57°
2026-05-08 04:11 38.13885 140.89971 16 ft 3 kts 82°
2026-05-08 04:11 38.13908 140.90192 17 ft 61 kts 81°
2026-05-08 04:12 38.13993 140.91013 18 ft 124 kts 83°
2026-05-08 04:12 38.14127 140.92328 34 ft 172 kts 86°
2026-05-08 04:12 38.14278 140.93836 647 ft 171 kts 85°
2026-05-08 04:12 38.14432 140.95333 1438 ft 170 kts 85°
2026-05-08 04:13 38.14589 140.96839 2015 ft 178 kts 85°
2026-05-08 04:13 38.14757 140.98502 2310 ft 201 kts 85°
2026-05-08 04:13 38.14869 141.00363 2617 ft 220 kts 99°
2026-05-08 04:13 38.14175 141.02142 2911 ft 239 kts 140°
2026-05-08 04:14 38.12631 141.03011 3386 ft 254 kts 176°
2026-05-08 04:14 38.10851 141.02881 4190 ft 259 kts 189°
2026-05-08 04:14 38.09073 141.02419 5067 ft 263 kts 193°
2026-05-08 04:14 38.07279 141.01911 5943 ft 266 kts 192°
2026-05-08 04:15 38.05451 141.01453 6776 ft 269 kts 191°
2026-05-08 04:15 38.03595 141.01064 7618 ft 272 kts 190°
2026-05-08 04:15 38.01712 141.00733 8475 ft 275 kts 190°
2026-05-08 04:15 37.99805 141.00441 9322 ft 278 kts 190°
2026-05-08 04:16 37.97874 141.00171 10124 ft 280 kts 190°
2026-05-08 04:16 37.95871 140.99898 10473 ft 301 kts 190°
2026-05-08 04:16 37.93716 140.99632 10822 ft 319 kts 186°
2026-05-08 04:16 37.91469 140.99595 11507 ft 325 kts 185°
2026-05-08 04:17 37.89202 140.99559 12277 ft 327 kts 185°
2026-05-08 04:17 37.86923 140.99518 13085 ft 328 kts 185°
2026-05-08 04:17 37.84637 140.99476 13831 ft 329 kts 186°
2026-05-08 04:17 37.82341 140.99432 14525 ft 330 kts 186°
2026-05-08 04:18 37.80038 140.99388 15222 ft 331 kts 186°
2026-05-08 04:18 37.77731 140.99329 15915 ft 331 kts 189°
2026-05-08 04:18 37.75506 140.98774 16594 ft 324 kts 204°
2026-05-08 04:18 37.73493 140.97466 17279 ft 321 kts 218°
2026-05-08 04:19 37.71881 140.95532 17958 ft 321 kts 231°
2026-05-08 04:19 37.70742 140.93097 18554 ft 325 kts 244°
2026-05-08 04:19 37.69901 140.90434 19120 ft 328 kts 245°
2026-05-08 04:19 37.69056 140.87750 19673 ft 330 kts 245°
2026-05-08 04:20 37.68200 140.85044 20185 ft 334 kts 245°
2026-05-08 04:20 37.67333 140.82305 20683 ft 338 kts 245°
2026-05-08 04:20 37.66459 140.79538 21198 ft 341 kts 246°
2026-05-08 04:20 37.65577 140.76746 21718 ft 344 kts 246°
2026-05-08 04:21 37.64687 140.73927 22229 ft 347 kts 246°
2026-05-08 04:21 37.63788 140.71084 22726 ft 350 kts 246°
2026-05-08 04:21 37.62879 140.68221 23201 ft 353 kts 246°
2026-05-08 04:21 37.61964 140.65334 23594 ft 356 kts 246°
2026-05-08 04:22 37.61041 140.62422 23993 ft 358 kts 246°
2026-05-08 04:22 37.60114 140.59498 24394 ft 360 kts 246°
2026-05-08 04:22 37.59181 140.56558 24789 ft 362 kts 246°
2026-05-08 04:22 37.58241 140.53601 25173 ft 364 kts 246°
2026-05-08 04:23 37.57294 140.50631 25555 ft 366 kts 246°
2026-05-08 04:23 37.56339 140.47645 25943 ft 368 kts 246°
2026-05-08 04:23 37.55229 140.44737 26309 ft 369 kts 238°
2026-05-08 04:23 37.53892 140.41967 26674 ft 371 kts 238°
2026-05-08 04:24 37.52547 140.39185 27036 ft 373 kts 238°
2026-05-08 04:24 37.51197 140.36387 27393 ft 375 kts 238°
2026-05-08 04:24 37.49841 140.33574 27754 ft 377 kts 238°
2026-05-08 04:24 37.48476 140.30747 28102 ft 379 kts 238°
2026-05-08 04:25 37.47101 140.27906 28447 ft 381 kts 238°
2026-05-08 04:25 37.45722 140.25051 28783 ft 383 kts 238°
2026-05-08 04:25 37.44335 140.22179 29122 ft 385 kts 238°
2026-05-08 04:25 37.42939 140.19296 29447 ft 387 kts 238°
2026-05-08 04:26 37.41533 140.16399 29740 ft 389 kts 238°
2026-05-08 04:26 37.40119 140.13490 30005 ft 390 kts 238°
2026-05-08 04:26 37.39181 140.11559 30174 ft 391 kts 238°
2026-05-08 04:26 37.37755 140.08635 30408 ft 393 kts 238°
2026-05-08 04:27 37.36323 140.05703 30654 ft 395 kts 238°
2026-05-08 04:27 37.34883 140.02757 30893 ft 396 kts 238°
2026-05-08 04:27 37.33444 139.99806 31124 ft 397 kts 238°
2026-05-08 04:27 37.31954 139.96881 31487 ft 396 kts 233°
2026-05-08 04:28 37.30103 139.94324 31847 ft 397 kts 223°
2026-05-08 04:28 37.27863 139.92286 32172 ft 400 kts 213°
2026-05-08 04:28 37.25310 139.90857 32479 ft 405 kts 202°
2026-05-08 04:28 37.22588 139.89896 32774 ft 407 kts 200°
2026-05-08 04:29 37.19857 139.88960 33070 ft 406 kts 200°
2026-05-08 04:29 37.17131 139.88023 33374 ft 406 kts 200°
2026-05-08 04:29 37.14408 139.87083 33681 ft 406 kts 201°
2026-05-08 04:29 37.11692 139.86141 33769 ft 402 kts 201°
2026-05-08 04:30 37.06364 139.84289 33789 ft 395 kts 201°
2026-05-08 04:30 37.01078 139.82449 33785 ft 394 kts 201°
2026-05-08 04:31 36.95793 139.80611 33792 ft 394 kts 201°
2026-05-08 04:31 36.90498 139.78792 33788 ft 395 kts 200°
2026-05-08 04:32 36.85190 139.76966 33793 ft 396 kts 201°
2026-05-08 04:32 36.79882 139.75135 33776 ft 396 kts 200°
2026-05-08 04:33 36.74568 139.73311 33778 ft 396 kts 200°
2026-05-08 04:33 36.69255 139.71487 33769 ft 396 kts 200°
2026-05-08 04:34 36.63936 139.69663 33769 ft 396 kts 200°
2026-05-08 04:34 36.58615 139.67841 33770 ft 397 kts 200°
2026-05-08 04:35 36.53283 139.66029 33766 ft 397 kts 200°
2026-05-08 04:35 36.47952 139.64210 33765 ft 397 kts 200°
2026-05-08 04:36 36.42638 139.62334 33771 ft 395 kts 205°
2026-05-08 04:36 36.37945 139.58998 33770 ft 387 kts 223°
2026-05-08 04:37 36.34192 139.54253 33772 ft 386 kts 228°
2026-05-08 04:37 36.30489 139.49429 33770 ft 386 kts 228°
2026-05-08 04:38 36.26783 139.44597 33778 ft 387 kts 228°
2026-05-08 04:38 36.23067 139.39761 33776 ft 388 kts 228°
2026-05-08 04:39 36.19336 139.34925 33778 ft 389 kts 227°
2026-05-08 04:39 36.15945 139.29752 33771 ft 388 kts 240°
2026-05-08 04:40 36.13647 139.23707 33781 ft 389 kts 245°
2026-05-08 04:40 36.11394 139.17626 33781 ft 389 kts 245°
2026-05-08 04:41 36.09103 139.11503 33791 ft 390 kts 245°
2026-05-08 04:41 36.06829 139.05410 33785 ft 390 kts 245°
2026-05-08 04:42 36.04553 138.99316 33793 ft 391 kts 245°
2026-05-08 04:42 36.02264 138.93215 33792 ft 392 kts 245°
2026-05-08 04:43 35.99972 138.87111 33797 ft 392 kts 245°
2026-05-08 04:43 35.97673 138.80998 33786 ft 393 kts 245°
2026-05-08 04:44 35.95368 138.74884 33788 ft 393 kts 244°
2026-05-08 04:44 35.93061 138.68763 33785 ft 394 kts 244°
2026-05-08 04:45 35.90742 138.62634 33788 ft 395 kts 245°
2026-05-08 04:45 35.88414 138.56505 33787 ft 395 kts 244°
2026-05-08 04:46 35.86070 138.50370 33800 ft 395 kts 244°
2026-05-08 04:46 35.83726 138.44244 33799 ft 395 kts 244°
2026-05-08 04:47 35.81377 138.38115 33803 ft 395 kts 244°
2026-05-08 04:47 35.79029 138.31992 33799 ft 395 kts 244°
2026-05-08 04:48 35.76676 138.25872 33802 ft 395 kts 244°
2026-05-08 04:48 35.74323 138.19752 33801 ft 396 kts 244°
2026-05-08 04:49 35.71964 138.13620 33811 ft 397 kts 244°
2026-05-08 04:49 35.69590 138.07488 33819 ft 397 kts 244°
2026-05-08 04:50 35.67208 138.01365 33822 ft 397 kts 244°
2026-05-08 04:50 35.64907 137.95189 33819 ft 397 kts 246°
2026-05-08 04:51 35.62704 137.88953 33830 ft 398 kts 246°
2026-05-08 04:51 35.60485 137.82722 33821 ft 398 kts 246°
2026-05-08 04:52 35.58227 137.76505 33829 ft 399 kts 245°
2026-05-08 04:52 35.55885 137.70328 33820 ft 399 kts 245°
2026-05-08 04:53 35.53515 137.64161 33831 ft 399 kts 245°
2026-05-08 04:53 35.51160 137.57981 33826 ft 400 kts 245°
2026-05-08 04:54 35.48804 137.51794 33825 ft 400 kts 244°
2026-05-08 04:54 35.45594 137.46248 33816 ft 402 kts 225°
2026-05-08 04:55 35.43391 137.44116 33817 ft 405 kts 214°
2026-05-08 04:55 35.40923 137.42423 33819 ft 407 kts 211°
2026-05-08 04:55 35.35939 137.39111 33804 ft 408 kts 211°
2026-05-08 04:56 35.30948 137.35780 33803 ft 409 kts 211°
2026-05-08 04:56 35.25941 137.32450 33796 ft 410 kts 211°
2026-05-08 04:57 35.20923 137.29114 33793 ft 411 kts 211°
2026-05-08 04:57 35.15894 137.25765 33788 ft 412 kts 211°
2026-05-08 04:58 35.10851 137.22414 33787 ft 413 kts 211°
2026-05-08 04:58 35.05793 137.19059 33779 ft 414 kts 210°
2026-05-08 04:59 35.00719 137.15709 33777 ft 415 kts 210°
2026-05-08 04:59 34.95635 137.12352 33771 ft 416 kts 210°
2026-05-08 05:00 34.90542 137.08988 33774 ft 417 kts 210°
2026-05-08 05:00 34.85438 137.05630 33770 ft 417 kts 210°
2026-05-08 05:01 34.80320 137.02269 33774 ft 418 kts 210°
2026-05-08 05:01 34.75199 136.98903 33774 ft 419 kts 210°
2026-05-08 05:02 34.70114 136.95442 33775 ft 418 kts 216°
2026-05-08 05:02 34.65479 136.91180 33765 ft 417 kts 218°
2026-05-08 05:03 34.60872 136.86899 33771 ft 417 kts 218°
2026-05-08 05:03 34.56260 136.82635 33791 ft 417 kts 218°
2026-05-08 05:04 34.51646 136.78376 33796 ft 416 kts 218°
2026-05-08 05:04 34.47040 136.74129 33807 ft 416 kts 218°
2026-05-08 05:05 34.43187 136.70581 33804 ft 415 kts 218°
2026-05-08 05:05 34.38616 136.66387 33802 ft 415 kts 218°
2026-05-08 05:06 34.33993 136.62143 33805 ft 414 kts 218°
2026-05-08 05:06 34.29409 136.57928 33817 ft 414 kts 219°
2026-05-08 05:07 34.24861 136.53680 33814 ft 413 kts 219°
2026-05-08 05:07 34.20339 136.49413 33820 ft 412 kts 219°
2026-05-08 05:08 34.15823 136.45168 33817 ft 411 kts 219°
2026-05-08 05:08 34.11302 136.40956 33819 ft 410 kts 219°
2026-05-08 05:09 34.06792 136.36747 33819 ft 409 kts 219°
2026-05-08 05:09 34.02293 136.32551 33824 ft 409 kts 219°
2026-05-08 05:10 33.95557 136.26272 33814 ft 408 kts 219°
2026-05-08 05:11 33.91066 136.22103 33816 ft 407 kts 219°
2026-05-08 05:11 33.86571 136.17948 33815 ft 407 kts 219°
2026-05-08 05:12 33.82086 136.13791 33813 ft 407 kts 219°
2026-05-08 05:12 33.77605 136.09637 33815 ft 407 kts 219°
2026-05-08 05:13 33.73122 136.05491 33821 ft 406 kts 219°
2026-05-08 05:13 33.68639 136.01364 33822 ft 406 kts 219°
2026-05-08 05:14 33.64162 135.97245 33826 ft 405 kts 219°
2026-05-08 05:14 33.59691 135.93130 33826 ft 405 kts 219°
2026-05-08 05:15 33.55219 135.89020 33825 ft 405 kts 219°
2026-05-08 05:15 33.50742 135.84918 33827 ft 405 kts 219°
2026-05-08 05:16 33.46955 135.80025 33824 ft 401 kts 240°
2026-05-08 05:16 33.45804 135.76993 33828 ft 401 kts 252°
2026-05-08 05:16 33.45210 135.73735 33822 ft 402 kts 263°
2026-05-08 05:17 33.45338 135.67007 33657 ft 406 kts 271°
2026-05-08 05:17 33.45490 135.63642 33398 ft 404 kts 271°
2026-05-08 05:17 33.45638 135.60285 33137 ft 403 kts 271°
2026-05-08 05:17 33.45781 135.56940 32875 ft 402 kts 271°
2026-05-08 05:18 33.45922 135.53606 32633 ft 400 kts 271°
2026-05-08 05:18 33.46064 135.50289 32380 ft 398 kts 271°
2026-05-08 05:18 33.46203 135.46982 32129 ft 397 kts 271°
2026-05-08 05:18 33.46339 135.43698 31779 ft 393 kts 271°
2026-05-08 05:19 33.46471 135.40444 31286 ft 390 kts 271°
2026-05-08 05:19 33.46714 135.37222 30805 ft 389 kts 279°
2026-05-08 05:19 33.47499 135.34128 30320 ft 390 kts 291°
2026-05-08 05:19 33.48836 135.31289 29779 ft 394 kts 302°
2026-05-08 05:20 33.50682 135.28846 29220 ft 398 kts 314°
2026-05-08 05:20 33.52778 135.26687 28690 ft 396 kts 315°
2026-05-08 05:20 33.54860 135.24546 28182 ft 393 kts 315°
2026-05-08 05:20 33.56920 135.22420 27741 ft 389 kts 315°
2026-05-08 05:21 33.58963 135.20307 27272 ft 386 kts 314°
2026-05-08 05:21 33.60983 135.18210 26829 ft 383 kts 314°
2026-05-08 05:21 33.62986 135.16126 26386 ft 380 kts 314°
2026-05-08 05:21 33.64978 135.14056 25941 ft 377 kts 314°
2026-05-08 05:22 33.66976 135.12023 25494 ft 376 kts 316°
2026-05-08 05:22 33.69014 135.10067 25029 ft 375 kts 317°
2026-05-08 05:22 33.71075 135.08156 24558 ft 374 kts 317°
2026-05-08 05:22 33.73138 135.06266 24084 ft 373 kts 317°
2026-05-08 05:23 33.75197 135.04379 23593 ft 372 kts 317°
2026-05-08 05:23 33.77247 135.02484 23050 ft 371 kts 317°
2026-05-08 05:23 33.79278 135.00591 22554 ft 368 kts 316°
2026-05-08 05:23 33.81294 134.98698 22195 ft 368 kts 311°
2026-05-08 05:24 33.83281 134.96825 21889 ft 357 kts 311°
2026-05-08 05:24 33.85292 134.95087 21108 ft 359 kts 320°
2026-05-08 05:24 33.87600 134.93923 20651 ft 362 kts 334°
2026-05-08 05:24 33.90104 134.93489 20177 ft 368 kts 349°
2026-05-08 05:25 33.92663 134.93796 19696 ft 369 kts 359°
2026-05-08 05:25 33.95166 134.94280 19224 ft 360 kts 359°
2026-05-08 05:25 33.97610 134.94759 18769 ft 351 kts 359°
2026-05-08 05:25 34.00000 134.95224 18320 ft 346 kts 358°
2026-05-08 05:26 34.02371 134.95677 17832 ft 344 kts 358°
2026-05-08 05:26 34.04721 134.96123 17392 ft 340 kts 359°
2026-05-08 05:26 34.07059 134.96565 16968 ft 341 kts 359°
2026-05-08 05:26 34.09415 134.97006 16546 ft 345 kts 359°
2026-05-08 05:27 34.11812 134.97452 16096 ft 352 kts
2026-05-08 05:27 34.14252 134.97908 15648 ft 356 kts
2026-05-08 05:27 34.16701 134.98377 15210 ft 357 kts
2026-05-08 05:27 34.19154 134.98850 14764 ft 358 kts
2026-05-08 05:28 34.21614 134.99325 14317 ft 358 kts
2026-05-08 05:28 34.24077 134.99799 13866 ft 359 kts
2026-05-08 05:28 34.26543 135.00268 13308 ft 357 kts
2026-05-08 05:28 34.28964 135.00394 13082 ft 341 kts 351°
2026-05-08 05:29 34.31299 135.00062 12701 ft 336 kts 347°
2026-05-08 05:29 34.33618 134.99695 12312 ft 337 kts 345°
2026-05-08 05:29 34.35942 134.99324 11856 ft 336 kts 345°
2026-05-08 05:29 34.38255 134.98957 11488 ft 333 kts 345°
2026-05-08 05:30 34.40511 134.98604 11363 ft 321 kts 345°
2026-05-08 05:30 34.42710 134.98394 11042 ft 317 kts 356°
2026-05-08 05:30 34.44886 134.98922 10434 ft 324 kts 16°
2026-05-08 05:30 34.46845 135.00291 9725 ft 328 kts 38°
2026-05-08 05:31 34.48373 135.02291 9199 ft 320 kts 50°
2026-05-08 05:31 34.49760 135.04337 8790 ft 307 kts 49°
2026-05-08 05:31 34.51105 135.06315 8368 ft 303 kts 49°
2026-05-08 05:31 34.52451 135.08286 7929 ft 304 kts 49°
2026-05-08 05:32 34.53803 135.10261 7486 ft 305 kts 49°
2026-05-08 05:32 34.55159 135.12243 7040 ft 306 kts 49°
2026-05-08 05:32 34.56516 135.14225 6591 ft 306 kts 49°
2026-05-08 05:32 34.57867 135.16200 6183 ft 305 kts 49°
2026-05-08 05:33 34.59199 135.18174 5769 ft 302 kts 52°
2026-05-08 05:33 34.60174 135.20412 5463 ft 296 kts 71°
2026-05-08 05:33 34.60573 135.22822 5338 ft 281 kts 88°
2026-05-08 05:33 34.60554 135.25108 5219 ft 268 kts 93°
2026-05-08 05:34 34.60513 135.27317 5100 ft 255 kts 93°
2026-05-08 05:34 34.60475 135.29473 4989 ft 250 kts 92°
2026-05-08 05:34 34.60434 135.31574 4882 ft 249 kts 93°
2026-05-08 05:34 34.60392 135.33673 4768 ft 248 kts 93°
2026-05-08 05:35 34.60230 135.35730 4423 ft 246 kts 112°
2026-05-08 05:35 34.59223 135.37333 3965 ft 239 kts 154°
2026-05-08 05:35 34.57677 135.37807 3593 ft 227 kts 185°
2026-05-08 05:35 34.56141 135.37679 3230 ft 213 kts 200°
2026-05-08 05:36 34.54837 135.37056 2954 ft 196 kts 207°
2026-05-08 05:36 34.53625 135.36416 2747 ft 182 kts 216°
2026-05-08 05:36 34.52741 135.35403 2441 ft 173 kts 235°
2026-05-08 05:36 34.52003 135.34283 2146 ft 167 kts 234°
2026-05-08 05:37 34.51281 135.33198 1910 ft 165 kts 234°
2026-05-08 05:37 34.50562 135.32123 1637 ft 163 kts 236°
2026-05-08 05:37 34.49870 135.31089 1395 ft 150 kts 235°
2026-05-08 05:37 34.49240 135.30151 1204 ft 139 kts 235°
2026-05-08 05:38 34.48648 135.29263 1045 ft 133 kts 234°
2026-05-08 05:38 34.48070 135.28398 909 ft 132 kts 233°
2026-05-08 05:38 34.47494 135.27537 745 ft 132 kts 233°
2026-05-08 05:38 34.46917 135.26674 598 ft 132 kts 233°
2026-05-08 05:39 34.46342 135.25811 439 ft 131 kts 230°
2026-05-08 05:39 34.45765 135.24953 262 ft 132 kts 231°
2026-05-08 05:39 34.45187 135.24094 99 ft 131 kts 231°
2026-05-08 05:39 34.44625 135.23252 41 ft 125 kts 233°
2026-05-08 05:40 34.44135 135.22522 33 ft 91 kts 231°
2026-05-08 05:40 34.43841 135.22085 30 ft 48 kts 231°
2026-05-08 05:40 34.43664 135.21829 31 ft 30 kts 224°
2026-05-08 05:40 34.43496 135.21704 32 ft 28 kts 202°
2026-05-08 05:41 34.43389 135.21687 29 ft 13 kts 139°
2026-05-08 05:41 34.43420 135.21804 29 ft 17 kts 51°
2026-05-08 05:41 34.43491 135.21910 29 ft 16 kts 51°
2026-05-08 05:41 34.43571 135.22029 29 ft 23 kts 51°
2026-05-08 05:42 34.43692 135.22208 29 ft 32 kts 51°
2026-05-08 05:42 34.43768 135.22321 29 ft 17 kts 51°
2026-05-08 05:42 34.43776 135.22420 29 ft 12 kts 137°
2026-05-08 05:42 34.43721 135.22475 29 ft 5 kts 140°
2026-05-08 05:43 34.43695 135.22501 29 ft 6 kts 140°
2026-05-08 05:43 34.43701 135.22568 29 ft 11 kts 52°
2026-05-08 05:43 34.43763 135.22659 29 ft 12 kts 51°
2026-05-08 05:43 34.43742 135.22736 29 ft 12 kts 141°
2026-05-08 05:44 34.43663 135.22812 29 ft 9 kts 140°
2026-05-08 05:44 34.43666 135.22855 29 ft 5 kts 53°
2026-05-08 05:44 34.43697 135.22900 29 ft 1 kts 50°
2026-05-08 05:44 34.43702 135.22909 29 ft 0 kts 51°